Location: C.E.K. Mees Observatory
(42.7003°N, 77.4088°W)
Time: 17:32:14
(UTC-05:00)

Envisat - Pass Details

Date: 20 November 2019
Orbit: 764 x 766 km, 98.1° (Epoch: 12 December)

Event Time Altitude Azimuth Distance (km) Brightness Sun altitude
Rises 18:17:52 0° 172° (S) 3,217 6.3 -17.3°
Reaches altitude 10° 18:20:10 10° 174° (S) 2,295 5.5 -17.7°
Maximum altitude 18:25:13 70° 258° (WSW) 816 3.3 -18.6°
Drops below altitude 10° 18:30:18 10° 342° (NNW) 2,310 5.6 -19.6°
Sets 18:32:38 0° 345° (NNW) 3,241 6.3 -20.0°
